FLOCK 4Q 31

导读 | 星芒AI

FLOCK 4Q 31 是由 Planet Labs 运营的 Flock 4Q 系列地球观测卫星之一,主要用于高分辨率光学成像。该卫星属于小型立方星(CubeSat)设计,具备高光谱成像能力,支持农业监测、环境评估和灾害响应等多种应用。Flock 4Q 31 于 2017 年发射,与其他 Flock 卫星协同工作,提供频繁的地球重访率和高质量影像数据,服务于全球用户和科研机构。

基本信息
目录编号:
58285
目录名称:
FLOCK 4Q 31
国际标识:
2023-174AF
轨道中心:
EARTH
卫星名称:
FLOCK 4Q 31
卫星全名:
--
卫星状态:
在轨 (已飞行711 天)
发射日期:
2023-11-11 UTC
国别 :
美国 (US)
星等 :
--
轨道信息
数据来源 国际轨道数据
星历时间: 2025-10-22T12:47:16+0800
9小时前
查看轨道信息
半长轴: 6821.997km
偏心率: 0.0007069
轨道倾角: 97.413°
近地点辐角 289.738°
升交点赤经 16.407°
平近点角 70.310°
近地点: 439.039km
远地点: 448.685km
周期: 93.460分钟
每日圈数: 15.407618
详细信息
使用方式:
暂无
2D轨道图
3D轨道图
轨道高度分析图
轨道倾角分析图
轨道综合分析图
查看轨道综合分析图